Location: Guadanolo
(41.9167°N, 12.9333°E)
Time: 03:19:43
(UTC+00:00)

Cosmos 1743 - Pass Details

Date: 16 September 2019
Orbit: 512 x 527 km, 82.6° (Epoch: 15 October)

Event Time Altitude Azimuth Distance (km) Brightness Sun altitude
Rises 17:34:29 0° 186° (S) 2,621 6.3 -4.1°
Reaches altitude 10° 17:36:36 10° 186° (S) 1,742 5.4 -4.5°
Maximum altitude 17:40:25 89° 100° (E) 526 2.7 -5.2°
Drops below altitude 10° 17:44:18 10° 8° (N) 1,766 5.4 -5.9°
Sets 17:46:27 0° 9° (N) 2,662 6.3 -6.3°
